This is the latest recevied weather packets stored in our database for station/object KE8WMS. If no packets are shown the sender has not sent any weather packets the latest 10 day(s).
| Time | Temp. | Humidity | Pressure | Rain* | Wind** | Luminosity | Snow |
|---|---|---|---|---|---|---|---|
| 1787610158 | 21.67° C | 67% | 1011.2 hPa | 0 mm | - | 60 W/m² | - |
| 1787609857 | 21.67° C | 69% | 1011.2 hPa | 0 mm | - | 79 W/m² | - |
| 1787609552 | 21.67° C | 67% | 1011.4 hPa | 0 mm | - | 92 W/m² | - |
| 1787609252 | 21.67° C | 69% | 1011.4 hPa | 0 mm | - | 88 W/m² | - |
| 1787608951 | 22.22° C | 67% | 1011.5 hPa | 0 mm | - | 105 W/m² | - |
| 1787608652 | 22.22° C | 67% | 1011.3 hPa | 0 mm | - | 108 W/m² | - |
| 1787608347 | 22.22° C | 68% | 1011.3 hPa | 0 mm | - | 185 W/m² | - |
| 1787608044 | 22.78° C | 66% | 1011.7 hPa | 0 mm | - | 118 W/m² | - |
| 1787607740 | 22.22° C | 65% | 1011.7 hPa | 0 mm | - | 182 W/m² | - |
| 1787607437 | 23.33° C | 63% | 1011.9 hPa | 0 mm | - | 158 W/m² | - |
| 1787607134 | 23.33° C | 64% | 1011.9 hPa | 0 mm | - | 417 W/m² | - |
| 1787606834 | 23.33° C | 65% | 1011.8 hPa | 0 mm | - | 394 W/m² | - |
| 1787606532 | 22.78° C | 63% | 1011.8 hPa | 0 mm | - | 280 W/m² | - |
| 1787606232 | 23.33° C | 62% | 1011.9 hPa | 0 mm | - | 402 W/m² | - |
| 1787605931 | 22.78° C | 62% | 1011.6 hPa | 0 mm | - | 404 W/m² | - |
| 1787605630 | 23.33° C | 61% | 1011.8 hPa | 0 mm | - | 460 W/m² | - |
| 1787605326 | 22.78° C | 63% | 1011.6 hPa | 0 mm | - | 460 W/m² | - |
| 1787605021 | 22.78° C | 63% | 1011.7 hPa | 0 mm | - | 441 W/m² | - |
| 1787604720 | 22.78° C | 62% | 1011.9 hPa | 0 mm | - | 478 W/m² | - |
| 1787604416 | 22.78° C | 63% | 1012 hPa | 0 mm | - | 375 W/m² | - |
| 1787604116 | 23.33° C | 62% | 1011.8 hPa | 0 mm | - | 133 W/m² | - |
| 1787603815 | 22.78° C | 62% | 1011.9 hPa | 0 mm | - | 511 W/m² | - |
| 1787603511 | 22.78° C | 63% | 1011.8 hPa | 0 mm | - | 497 W/m² | - |
| 1787603206 | 22.78° C | 63% | 1011.8 hPa | 0 mm | - | 487 W/m² | - |
| 1787602903 | 22.78° C | 63% | 1011.4 hPa | 0 mm | - | 506 W/m² | - |
* Rain latest hour (hover to see other rain measurements)
** Current wind speed in m/s (hover to see current wind gust speed)